• In Uzbekistan
  • List of Countries
  • For 7 days
  • Water Temperature
  • Satellite Maps
  • Weather Map
  • Weather Widgets
  • user-avatar
    Login

    Hourly Weather Innsbruck

    Today, 23 April, Sunday

    Time Temperature Precipitation Wind Pressure Humidity
    00:00 -4°C° 0.9 mm 2 mps 594 mmHg 96%
    01:00 -4°C° 0 mm 2 mps 594 mmHg 96%
    02:00 -5°C° 0.6 mm 2 mps 594 mmHg 96%
    03:00 -6°C° 0.6 mm 2 mps 594 mmHg 97%
    04:00 -6°C° 0.6 mm 2 mps 594 mmHg 97%
    05:00 -6°C° 0.3 mm 2 mps 594 mmHg 96%
    06:00 -3°C° 0.3 mm 1 mps 594 mmHg 95%
    07:00 -3°C° 0 mm 1 mps 594 mmHg 93%
    08:00 -2°C° 0.1 mm 1 mps 595 mmHg 91%
    09:00 -1°C° 0.1 mm 1 mps 595 mmHg 90%
    10:00 0°C° 0.1 mm 1 mps 595 mmHg 88%
    11:00 0°C° 0.1 mm 1 mps 595 mmHg 87%
    12:00 +1°C° 0.1 mm 1 mps 596 mmHg 87%
    13:00 +2°C° 0.1 mm 1 mps 596 mmHg 86%
    14:00 +2°C° 0.1 mm 1 mps 596 mmHg 86%
    15:00 +2°C° 0.1 mm 1 mps 596 mmHg 87%
    16:00 +2°C° 0.1 mm 1 mps 596 mmHg 87%
    17:00 0°C° 0.1 mm 1 mps 595 mmHg 90%
    18:00 -1°C° 0.1 mm 1 mps 595 mmHg 93%
    19:00 -2°C° 0.1 mm 1 mps 595 mmHg 95%
    20:00 -3°C° 0 mm 1 mps 595 mmHg 96%
    21:00 -4°C° 0 mm 1 mps 595 mmHg 96%
    22:00 -4°C° 0 mm 1 mps 595 mmHg 97%
    23:00 -6°C° 0 mm 1 mps 594 mmHg 96%

    Tomorrow, 24 April, Monday

    Time Temperature Precipitation Wind Pressure Humidity
    00:00 -7°C° 0 mm 1 mps 594 mmHg 96%
    01:00 -8°C° 0 mm 1 mps 593 mmHg 95%
    02:00 -8°C° 0 mm 1 mps 593 mmHg 94%
    03:00 -9°C° 0 mm 1 mps 592 mmHg 92%
    04:00 -9°C° 0 mm 1 mps 592 mmHg 91%
    05:00 -7°C° 0 mm 1 mps 593 mmHg 90%
    06:00 -4°C° 0 mm 1 mps 593 mmHg 89%
    07:00 -2°C° 0 mm 1 mps 594 mmHg 88%
    08:00 0°C° 0 mm 1 mps 595 mmHg 86%
    09:00 +2°C° 0 mm 1 mps 595 mmHg 85%
    10:00 +4°C° 0 mm 1 mps 596 mmHg 83%
    11:00 +4°C° 0 mm 1 mps 596 mmHg 81%
    12:00 +5°C° 0 mm 1 mps 596 mmHg 80%
    13:00 +6°C° 0 mm 1 mps 596 mmHg 78%
    14:00 +6°C° 0.1 mm 1 mps 595 mmHg 78%
    15:00 +6°C° 0.1 mm 1 mps 595 mmHg 79%
    16:00 +6°C° 0.1 mm 1 mps 595 mmHg 79%
    17:00 +4°C° 0.2 mm 1 mps 594 mmHg 84%
    18:00 +2°C° 0.2 mm 1 mps 593 mmHg 89%
    19:00 0°C° 0.2 mm 1 mps 592 mmHg 94%
    20:00 0°C° 0.1 mm 1 mps 592 mmHg 94%
    21:00 -2°C° 0.1 mm 2 mps 592 mmHg 95%
    22:00 -2°C° 0.1 mm 2 mps 592 mmHg 95%
    23:00 -2°C° 0 mm 2 mps 592 mmHg 95%

    Day after tomorrow, 25 April, Tuesday

    Time Temperature Precipitation Wind Pressure Humidity
    00:00 -3°C° 0 mm 2 mps 591 mmHg 95%
    01:00 -3°C° 0 mm 2 mps 591 mmHg 96%
    02:00 -3°C° 0 mm 2 mps 591 mmHg 95%
    03:00 -3°C° 0 mm 2 mps 590 mmHg 95%
    04:00 -3°C° 0 mm 2 mps 590 mmHg 95%
    05:00 -2°C° 0 mm 2 mps 590 mmHg 93%
    06:00 -2°C° 0 mm 2 mps 590 mmHg 92%
    07:00 -1°C° 0 mm 2 mps 590 mmHg 90%
    08:00 +2°C° 0.1 mm 2 mps 591 mmHg 86%
    09:00 +3°C° 0.1 mm 2 mps 591 mmHg 82%
    10:00 +5°C° 0.1 mm 2 mps 592 mmHg 78%
    11:00 +5°C° 0.4 mm 2 mps 591 mmHg 78%
    12:00 +6°C° 0.4 mm 2 mps 591 mmHg 78%
    13:00 +6°C° 0.4 mm 2 mps 591 mmHg 78%
    14:00 +5°C° 1 mm 2 mps 590 mmHg 80%
    15:00 +5°C° 1 mm 2 mps 590 mmHg 83%
    16:00 +4°C° 1 mm 2 mps 589 mmHg 86%
    17:00 +3°C° 1.8 mm 2 mps 589 mmHg 90%
    18:00 +2°C° 1.8 mm 2 mps 589 mmHg 93%
    19:00 +2°C° 1.8 mm 1 mps 588 mmHg 97%
    20:00 +1°C° 2 mm 1 mps 588 mmHg 97%
    21:00 +1°C° 2 mm 1 mps 588 mmHg 98%
    22:00 0°C° 2 mm 1 mps 588 mmHg 98%
    23:00 0°C° 1.8 mm 1 mps 588 mmHg 98%

    26 April, Wednesday

    Time Temperature Precipitation Wind Pressure Humidity
    00:00 -1°C° 1.8 mm 1 mps 588 mmHg 98%
    01:00 -1°C° 1.8 mm 1 mps 588 mmHg 98%
    02:00 -2°C° 1.9 mm 1 mps 587 mmHg 98%
    03:00 -2°C° 1.9 mm 1 mps 587 mmHg 98%
    04:00 -3°C° 1.9 mm 1 mps 587 mmHg 98%
    05:00 -3°C° 1.8 mm 1 mps 587 mmHg 98%
    06:00 -3°C° 1.8 mm 1 mps 587 mmHg 98%
    07:00 -3°C° 1.8 mm 1 mps 587 mmHg 98%
    08:00 -3°C° 1.8 mm 1 mps 587 mmHg 98%
    09:00 -3°C° 1.8 mm 1 mps 587 mmHg 98%
    10:00 -5°C° 1.8 mm 2 mps 587 mmHg 97%
    11:00 -5°C° 1.6 mm 2 mps 587 mmHg 97%
    12:00 -5°C° 1.6 mm 2 mps 587 mmHg 98%
    13:00 -5°C° 1.6 mm 2 mps 587 mmHg 98%
    14:00 -5°C° 1.2 mm 2 mps 587 mmHg 97%
    15:00 -5°C° 1.2 mm 2 mps 587 mmHg 97%
    16:00 -5°C° 1.2 mm 2 mps 586 mmHg 97%
    17:00 -6°C° 0.5 mm 2 mps 586 mmHg 97%
    18:00 -6°C° 0.5 mm 2 mps 586 mmHg 97%
    19:00 -4°C° 0.5 mm 1 mps 586 mmHg 98%
    20:00 -6°C° 0.7 mm 1 mps 586 mmHg 98%
    21:00 -6°C° 0.7 mm 1 mps 586 mmHg 98%
    22:00 -6°C° 0.7 mm 1 mps 586 mmHg 98%
    23:00 -7°C° 0.9 mm 1 mps 586 mmHg 98%

    27 April, Thursday

    Time Temperature Precipitation Wind Pressure Humidity
    00:00 -7°C° 0.9 mm 1 mps 585 mmHg 98%
    01:00 -7°C° 0.9 mm 1 mps 585 mmHg 98%
    02:00 -8°C° 0.6 mm 1 mps 585 mmHg 98%
    03:00 -8°C° 0.6 mm 1 mps 585 mmHg 98%
    04:00 -8°C° 0.6 mm 1 mps 585 mmHg 97%
    05:00 -8°C° 0.7 mm 1 mps 585 mmHg 97%
    06:00 -7°C° 0.7 mm 1 mps 585 mmHg 97%
    07:00 -6°C° 0.7 mm 1 mps 586 mmHg 97%
    08:00 -6°C° 1.1 mm 1 mps 586 mmHg 96%
    09:00 -6°C° 1.1 mm 1 mps 586 mmHg 96%
    10:00 -4°C° 1.1 mm 1 mps 587 mmHg 96%
    11:00 -6°C° 1 mm 2 mps 587 mmHg 96%
    12:00 -6°C° 1 mm 2 mps 587 mmHg 96%
    13:00 -6°C° 1 mm 2 mps 587 mmHg 95%
    14:00 -6°C° 1 mm 2 mps 587 mmHg 96%
    15:00 -6°C° 1 mm 2 mps 587 mmHg 96%
    16:00 -6°C° 1 mm 2 mps 587 mmHg 96%
    17:00 -7°C° 0.8 mm 2 mps 587 mmHg 97%
    18:00 -7°C° 0.8 mm 2 mps 587 mmHg 97%
    19:00 -7°C° 0.8 mm 1 mps 587 mmHg 97%
    20:00 -7°C° 0.7 mm 1 mps 587 mmHg 97%
    21:00 -7°C° 0.7 mm 1 mps 587 mmHg 97%
    22:00 -8°C° 0.7 mm 1 mps 588 mmHg 98%
    23:00 -8°C° 0.8 mm 1 mps 588 mmHg 97%

    28 April, Friday

    Time Temperature Precipitation Wind Pressure Humidity
    00:00 -8°C° 0.8 mm 1 mps 588 mmHg 97%
    01:00 -8°C° 0.8 mm 1 mps 588 mmHg 97%
    02:00 -8°C° 0.9 mm 1 mps 588 mmHg 97%
    03:00 -8°C° 0.9 mm 1 mps 588 mmHg 97%
    04:00 -8°C° 0.9 mm 1 mps 588 mmHg 97%
    05:00 -7°C° 1.2 mm 1 mps 588 mmHg 97%
    06:00 -8°C° 1.2 mm 2 mps 588 mmHg 97%
    07:00 -8°C° 1.2 mm 2 mps 589 mmHg 97%
    08:00 -8°C° 1 mm 2 mps 589 mmHg 97%
    09:00 -7°C° 1 mm 2 mps 589 mmHg 97%
    10:00 -7°C° 1 mm 2 mps 590 mmHg 96%
    11:00 -6°C° 0.6 mm 2 mps 590 mmHg 96%
    12:00 -6°C° 0.6 mm 2 mps 590 mmHg 96%
    13:00 -7°C° 0.6 mm 3 mps 591 mmHg 96%
    14:00 -6°C° 0.5 mm 2 mps 591 mmHg 96%
    15:00 -6°C° 0.5 mm 2 mps 591 mmHg 95%
    16:00 -6°C° 0.5 mm 2 mps 591 mmHg 95%
    17:00 -7°C° 0.4 mm 2 mps 591 mmHg 96%
    18:00 -7°C° 0.4 mm 2 mps 591 mmHg 96%
    19:00 -8°C° 0.4 mm 2 mps 591 mmHg 96%
    20:00 -9°C° 0.4 mm 2 mps 591 mmHg 97%
    21:00 -9°C° 0.4 mm 2 mps 591 mmHg 97%
    22:00 -10°C° 0.4 mm 2 mps 591 mmHg 97%
    23:00 -10°C° 0.3 mm 2 mps 592 mmHg 97%
    Show more